Location: Boiro
(42.6475°N, 8.8834°W)
Time: 08:40:58
(UTC+02:00)

NANOSAT C BR1 - Pass Details

Date: 19 August 2022
Orbit: 582 x 600 km, 98.0° (Epoch: 25 September)

Event Time Altitude Azimuth Distance (km) Brightness Sun altitude
Rises 03:52:45 0° 28° (NNE) 2,835 ? -32.0°
Reaches altitude 10° 03:55:26 10° 46° (NE) 1,924 ? -31.8°
Enters shadow 03:57:17 18° 70° (ENE) 1,486 ? -31.7°
